Time,TemperatureF,DewpointF,PressureIn,WindDirection,WindDirectionDegrees,WindSpeedMPH,WindSpeedGustMPH,Humidity,HourlyPrecipIn,Conditions,Clouds,dailyrainin,SoftwareType,DateUTC
2013-04-17 00:02:00,19.0,17.0,29.92,NNE,24,15.0,17.0,90,0.00,,,0.12,,2013-04-17 06:02:00,
2013-04-17 00:12:00,19.0,17.0,29.92,NNE,24,15.0,17.0,90,0.00,,,0.12,,2013-04-17 06:12:00,
2013-04-17 00:22:00,18.0,16.0,29.93,North,9,13.0,16.0,90,0.00,,,0.12,,2013-04-17 06:22:00,
2013-04-17 00:32:00,18.0,16.0,29.94,NNE,19,11.0,15.0,90,0.00,,,0.12,,2013-04-17 06:32:00,
2013-04-17 00:42:00,18.0,16.0,29.94,NNE,19,11.0,15.0,90,0.00,,,0.12,,2013-04-17 06:42:00,
2013-04-17 00:52:00,18.0,16.0,29.96,NNE,24,8.0,15.0,90,0.00,,,0.12,,2013-04-17 06:52:00,
2013-04-17 01:02:00,18.0,16.0,29.93,NNE,32,8.0,14.0,90,0.00,,,0.12,,2013-04-17 07:02:00,
2013-04-17 01:12:00,18.0,16.0,29.93,NNE,32,8.0,14.0,90,0.00,,,0.12,,2013-04-17 07:12:00,
2013-04-17 01:22:00,18.0,16.0,29.94,NNE,21,6.0,13.0,90,0.00,,,0.12,,2013-04-17 07:22:00,
2013-04-17 01:32:00,19.0,17.0,29.92,NNE,15,11.0,12.0,90,0.00,,,0.12,,2013-04-17 07:32:00,
2013-04-17 01:42:00,19.0,17.0,29.92,NNE,15,11.0,12.0,90,0.00,,,0.12,,2013-04-17 07:42:00,
2013-04-17 01:52:00,19.0,17.0,29.91,NNE,22,10.0,15.0,90,0.00,,,0.12,,2013-04-17 07:52:00,
2013-04-17 02:02:00,19.0,17.0,29.92,NNE,30,9.0,13.0,90,0.00,,,0.12,,2013-04-17 08:02:00,
2013-04-17 02:12:00,19.0,17.0,29.92,NNE,30,9.0,13.0,90,0.00,,,0.12,,2013-04-17 08:12:00,
2013-04-17 02:22:00,19.0,17.0,29.91,NNE,16,9.0,12.0,90,0.00,,,0.12,,2013-04-17 08:22:00,
2013-04-17 02:32:00,19.0,17.0,29.92,NNE,25,8.0,13.0,90,0.00,,,0.12,,2013-04-17 08:32:00,
2013-04-17 02:42:00,19.0,17.0,29.92,NNE,25,8.0,13.0,90,0.00,,,0.12,,2013-04-17 08:42:00,
2013-04-17 02:52:00,19.0,17.0,29.91,NNE,16,10.0,13.0,90,0.00,,,0.12,,2013-04-17 08:52:00,
2013-04-17 03:02:00,19.0,17.0,29.91,NNE,30,6.0,14.0,90,0.00,,,0.12,,2013-04-17 09:02:00,
2013-04-17 03:12:00,19.0,17.0,29.91,NNE,30,6.0,14.0,90,0.00,,,0.12,,2013-04-17 09:12:00,
2013-04-17 03:22:00,19.0,17.0,29.91,ENE,59,7.0,10.0,90,0.00,,,0.12,,2013-04-17 09:22:00,
2013-04-17 03:33:00,19.0,17.0,29.91,ENE,71,5.0,10.0,90,0.00,,,0.12,,2013-04-17 09:33:00,
2013-04-17 03:42:00,19.0,17.0,29.91,ENE,71,5.0,10.0,90,0.00,,,0.12,,2013-04-17 09:42:00,
2013-04-17 03:52:00,19.0,17.0,29.89,NE,53,8.0,10.0,90,0.00,,,0.12,,2013-04-17 09:52:00,
2013-04-17 04:02:00,19.0,17.0,29.89,NE,47,7.0,11.0,90,0.00,,,0.12,,2013-04-17 10:02:00,
2013-04-17 04:12:00,19.0,17.0,29.89,NE,47,7.0,11.0,90,0.00,,,0.12,,2013-04-17 10:12:00,
2013-04-17 04:23:00,19.0,17.0,29.90,NE,48,9.0,12.0,90,0.00,,,0.12,,2013-04-17 10:23:00,
2013-04-17 04:32:00,19.0,17.0,29.89,ENE,57,8.0,13.0,90,0.00,,,0.12,,2013-04-17 10:32:00,
2013-04-17 04:42:00,19.0,17.0,29.89,ENE,57,8.0,13.0,90,0.00,,,0.12,,2013-04-17 10:42:00,
2013-04-17 04:52:00,19.0,17.0,29.89,NE,51,9.0,12.0,90,0.00,,,0.12,,2013-04-17 10:52:00,
2013-04-17 05:02:00,19.0,17.0,29.90,NE,47,7.0,12.0,90,0.00,,,0.12,,2013-04-17 11:02:00,
2013-04-17 05:12:00,19.0,17.0,29.90,NE,47,7.0,12.0,90,0.00,,,0.12,,2013-04-17 11:12:00,
2013-04-17 05:22:00,19.0,17.0,29.89,NE,51,10.0,13.0,90,0.00,,,0.12,,2013-04-17 11:22:00,
2013-04-17 05:32:00,19.0,17.0,29.89,NE,55,8.0,13.0,90,0.00,,,0.12,,2013-04-17 11:32:00,
2013-04-17 05:42:00,19.0,17.0,29.89,NE,55,8.0,13.0,90,0.00,,,0.12,,2013-04-17 11:42:00,
2013-04-17 05:52:00,18.0,16.0,29.89,NE,55,7.0,12.0,90,0.00,,,0.12,,2013-04-17 11:52:00,
2013-04-17 06:02:00,18.0,16.0,29.88,NE,35,10.0,11.0,90,0.00,,,0.12,,2013-04-17 12:02:00,
2013-04-17 06:12:00,18.0,16.0,29.88,NE,35,10.0,11.0,90,0.00,,,0.12,,2013-04-17 12:12:00,
2013-04-17 06:22:00,18.0,16.0,29.89,NE,34,7.0,13.0,90,0.00,,,0.12,,2013-04-17 12:22:00,
2013-04-17 06:32:00,18.0,16.0,29.89,NNE,21,11.0,13.0,90,0.00,,,0.12,,2013-04-17 12:32:00,
2013-04-17 06:42:00,18.0,16.0,29.89,NNE,21,11.0,13.0,90,0.00,,,0.12,,2013-04-17 12:42:00,
2013-04-17 06:52:00,18.0,16.0,29.89,NNE,33,10.0,14.0,90,0.00,,,0.12,,2013-04-17 12:52:00,
2013-04-17 07:02:00,18.0,16.0,29.88,NNE,28,14.0,17.0,90,0.00,,,0.12,,2013-04-17 13:02:00,
2013-04-17 07:12:00,18.0,16.0,29.88,NNE,28,14.0,17.0,90,0.00,,,0.12,,2013-04-17 13:12:00,
2013-04-17 07:22:00,18.0,16.0,29.88,NE,40,12.0,14.0,90,0.00,,,0.12,,2013-04-17 13:22:00,
2013-04-17 07:32:00,17.0,14.0,29.88,NNE,21,13.0,17.0,89,0.00,,,0.12,,2013-04-17 13:32:00,
2013-04-17 07:42:00,17.0,14.0,29.88,NNE,21,13.0,17.0,89,0.00,,,0.12,,2013-04-17 13:42:00,
2013-04-17 07:52:00,15.0,12.0,29.89,NE,36,13.0,20.0,89,0.00,,,0.12,,2013-04-17 13:52:00,
2013-04-17 08:02:00,15.0,12.0,29.89,NNE,21,16.0,20.0,88,0.00,,,0.12,,2013-04-17 14:02:00,
2013-04-17 08:12:00,15.0,12.0,29.89,NNE,21,16.0,20.0,88,0.00,,,0.12,,2013-04-17 14:12:00,
2013-04-17 08:22:00,14.0,11.0,29.89,NNE,24,13.0,19.0,88,0.00,,,0.12,,2013-04-17 14:22:00,
2013-04-17 08:32:00,14.0,11.0,29.89,NNE,25,12.0,15.0,88,0.00,,,0.12,,2013-04-17 14:32:00,
2013-04-17 08:42:00,14.0,11.0,29.89,NNE,19,11.0,16.0,88,0.00,,,0.12,,2013-04-17 14:42:00,
2013-04-17 08:52:00,14.0,11.0,29.89,NNE,19,11.0,16.0,88,0.00,,,0.12,,2013-04-17 14:52:00,
2013-04-17 09:02:00,15.0,12.0,29.88,ENE,63,10.0,13.0,88,0.00,,,0.12,,2013-04-17 15:02:00,
2013-04-17 09:12:00,14.0,11.0,29.88,NNE,22,12.0,17.0,88,0.00,,,0.12,,2013-04-17 15:12:00,
2013-04-17 09:22:00,14.0,11.0,29.88,NNE,22,12.0,17.0,88,0.00,,,0.12,,2013-04-17 15:22:00,
2013-04-17 09:33:00,14.0,11.0,29.88,NE,36,11.0,15.0,88,0.00,,,0.05,,2013-04-17 15:33:00,
2013-04-17 09:42:00,14.0,11.0,29.88,NE,36,11.0,15.0,88,0.00,,,0.05,,2013-04-17 15:42:00,
2013-04-17 09:53:00,14.0,11.0,29.88,NE,52,11.0,17.0,88,0.00,,,0.05,,2013-04-17 15:53:00,
2013-04-17 10:03:00,14.0,11.0,29.88,NE,35,13.0,16.0,88,0.00,,,0.05,,2013-04-17 16:03:00,
2013-04-17 10:12:00,14.0,11.0,29.89,NNE,28,14.0,19.0,88,0.00,,,0.05,,2013-04-17 16:12:00,
2013-04-17 10:22:00,14.0,11.0,29.89,NNE,28,14.0,19.0,88,0.00,,,0.05,,2013-04-17 16:22:00,
2013-04-17 10:32:00,14.0,11.0,29.89,NNE,26,12.0,18.0,88,0.00,,,0.03,,2013-04-17 16:32:00,
2013-04-17 10:42:00,14.0,11.0,29.89,NNE,26,12.0,18.0,88,0.00,,,0.03,,2013-04-17 16:42:00,
2013-04-17 10:52:00,14.0,11.0,29.89,NE,40,10.0,18.0,88,0.00,,,0.03,,2013-04-17 16:52:00,
2013-04-17 11:02:00,14.0,11.0,29.90,NNE,19,11.0,16.0,88,0.00,,,0.03,,2013-04-17 17:02:00,
2013-04-17 11:12:00,14.0,11.0,29.90,NNE,19,11.0,16.0,88,0.00,,,0.03,,2013-04-17 17:12:00,
2013-04-17 11:22:00,14.0,11.0,29.90,NE,37,10.0,16.0,87,0.00,,,0.03,,2013-04-17 17:22:00,
2013-04-17 11:33:00,14.0,11.0,29.91,NE,40,14.0,20.0,88,0.00,,,0.02,,2013-04-17 17:33:00,
2013-04-17 11:42:00,14.0,11.0,29.91,NE,40,14.0,20.0,88,0.00,,,0.02,,2013-04-17 17:42:00,
2013-04-17 11:52:00,14.0,11.0,29.92,NNE,30,13.0,16.0,88,0.00,,,0.02,,2013-04-17 17:52:00,
2013-04-17 12:02:00,14.0,11.0,29.91,NNE,30,14.0,18.0,87,0.00,,,0.02,,2013-04-17 18:02:00,
2013-04-17 12:12:00,14.0,11.0,29.91,NNE,30,14.0,18.0,87,0.00,,,0.02,,2013-04-17 18:12:00,
2013-04-17 12:22:00,14.0,11.0,29.91,NNE,26,16.0,23.0,87,0.00,,,0.02,,2013-04-17 18:22:00,
2013-04-17 12:32:00,14.0,11.0,29.91,NNE,25,13.0,17.0,88,0.00,,,0.01,,2013-04-17 18:32:00,
2013-04-17 12:42:00,14.0,11.0,29.91,NNE,25,13.0,17.0,88,0.00,,,0.01,,2013-04-17 18:42:00,
2013-04-17 12:52:00,14.0,11.0,29.92,NE,38,13.0,17.0,88,0.00,,,0.01,,2013-04-17 18:52:00,
2013-04-17 13:02:00,14.0,11.0,29.93,NNE,29,0.0,20.0,87,0.00,,,0.01,,2013-04-17 19:02:00,
2013-04-17 13:12:00,14.0,11.0,29.93,NNE,29,0.0,20.0,87,0.00,,,0.01,,2013-04-17 19:12:00,
2013-04-17 13:22:00,14.0,11.0,29.93,NE,51,0.0,9.0,87,0.00,,,0.01,,2013-04-17 19:22:00,
2013-04-17 13:32:00,14.0,11.0,29.93,NNE,22,6.0,15.0,87,0.00,,,0.00,,2013-04-17 19:32:00,
2013-04-17 13:42:00,14.0,11.0,29.93,NNE,32,0.0,4.0,87,0.00,,,0.00,,2013-04-17 19:42:00,
2013-04-17 13:52:00,14.0,11.0,29.93,NNE,32,0.0,4.0,87,0.00,,,0.00,,2013-04-17 19:52:00,
2013-04-17 14:02:00,14.0,11.0,29.93,NNE,33,0.0,13.0,87,0.00,,,0.00,,2013-04-17 20:02:00,
2013-04-17 14:12:00,14.0,11.0,29.93,NNE,33,0.0,13.0,87,0.00,,,0.00,,2013-04-17 20:12:00,
2013-04-17 14:22:00,14.0,11.0,29.94,NNE,28,1.0,5.0,87,0.00,,,0.00,,2013-04-17 20:22:00,
2013-04-17 14:32:00,14.0,11.0,29.96,NNE,22,2.0,12.0,87,0.00,,,0.00,,2013-04-17 20:32:00,
2013-04-17 14:42:00,14.0,11.0,29.96,NNE,22,2.0,12.0,87,0.00,,,0.00,,2013-04-17 20:42:00,
2013-04-17 14:52:00,14.0,11.0,29.96,NNE,32,12.0,17.0,87,0.00,,,0.00,,2013-04-17 20:52:00,
2013-04-17 15:02:00,14.0,11.0,29.96,NNE,28,14.0,17.0,87,0.00,,,0.00,,2013-04-17 21:02:00,
2013-04-17 15:12:00,14.0,11.0,29.96,NNE,28,14.0,17.0,87,0.00,,,0.00,,2013-04-17 21:12:00,
2013-04-17 15:22:00,14.0,11.0,29.97,NE,42,10.0,14.0,87,0.00,,,0.00,,2013-04-17 21:22:00,
2013-04-17 15:32:00,14.0,11.0,29.96,NNE,33,12.0,14.0,87,0.00,,,0.00,,2013-04-17 21:32:00,
2013-04-17 15:42:00,14.0,11.0,29.96,NNE,29,13.0,16.0,87,0.00,,,0.00,,2013-04-17 21:42:00,
2013-04-17 15:53:00,14.0,11.0,29.96,NNE,29,13.0,16.0,87,0.00,,,0.00,,2013-04-17 21:53:00,
2013-04-17 16:02:00,14.0,11.0,29.96,NNE,24,13.0,19.0,87,0.00,,,0.00,,2013-04-17 22:02:00,
2013-04-17 16:12:00,14.0,11.0,29.96,NNE,20,15.0,19.0,87,0.00,,,0.00,,2013-04-17 22:12:00,
2013-04-17 16:22:00,14.0,11.0,29.96,NNE,20,15.0,19.0,87,0.00,,,0.00,,2013-04-17 22:22:00,
2013-04-17 16:33:00,14.0,11.0,29.97,NE,34,14.0,18.0,87,0.00,,,0.00,,2013-04-17 22:33:00,
2013-04-17 16:42:00,14.0,11.0,29.98,NE,34,15.0,18.0,87,0.00,,,0.00,,2013-04-17 22:42:00,
2013-04-17 16:53:00,14.0,11.0,29.98,NE,34,15.0,18.0,87,0.00,,,0.00,,2013-04-17 22:53:00,
2013-04-17 17:02:00,14.0,11.0,29.98,NNE,33,14.0,17.0,87,0.00,,,0.00,,2013-04-17 23:02:00,
2013-04-17 17:12:00,14.0,11.0,29.98,NNE,28,14.0,19.0,87,0.00,,,0.00,,2013-04-17 23:12:00,
2013-04-17 17:22:00,14.0,11.0,29.98,NNE,28,14.0,19.0,87,0.00,,,0.00,,2013-04-17 23:22:00,
2013-04-17 17:30:00,14.0,11.0,29.99,NNE,32,13.0,16.0,87,0.00,,,0.00,,2013-04-17 23:30:00,
2013-04-17 17:32:00,14.0,11.0,29.99,NNE,19,14.0,19.0,87,0.00,,,0.00,,2013-04-17 23:32:00,
2013-04-17 17:42:00,14.0,11.0,29.99,NNE,32,13.0,16.0,87,0.00,,,0.00,,2013-04-17 23:42:00,
2013-04-17 17:52:00,14.0,11.0,29.99,NNE,32,13.0,16.0,87,0.00,,,0.00,,2013-04-17 23:52:00,
2013-04-17 18:02:00,14.0,11.0,29.99,NNE,32,13.0,16.0,87,0.00,,,0.00,,2013-04-18 00:02:00,
2013-04-17 18:12:00,14.0,11.0,29.99,NNE,32,13.0,16.0,87,0.00,,,0.00,,2013-04-18 00:12:00,
2013-04-17 18:22:00,14.0,11.0,29.99,NNE,32,13.0,16.0,87,0.00,,,0.00,,2013-04-18 00:22:00,
2013-04-17 19:12:00,12.0,9.0,30.05,NNE,33,9.0,12.0,87,0.00,,,0.00,,2013-04-18 01:12:00,
2013-04-17 19:22:00,12.0,9.0,30.05,NNE,33,9.0,12.0,87,0.00,,,0.00,,2013-04-18 01:22:00,
2013-04-17 19:32:00,11.0,8.0,30.05,NE,45,5.0,11.0,87,0.00,,,0.00,,2013-04-18 01:32:00,
2013-04-17 19:42:00,11.0,8.0,30.05,ENE,58,4.0,8.0,87,0.00,,,0.00,,2013-04-18 01:42:00,
2013-04-17 19:52:00,11.0,8.0,30.05,ENE,58,4.0,8.0,87,0.00,,,0.00,,2013-04-18 01:52:00,
2013-04-17 20:02:00,11.0,8.0,30.06,ENE,63,3.0,5.0,87,0.00,,,0.00,,2013-04-18 02:02:00,
2013-04-17 20:12:00,11.0,8.0,30.07,ENE,64,0.0,3.0,87,0.00,,,0.00,,2013-04-18 02:12:00,
2013-04-17 20:22:00,11.0,8.0,30.07,ENE,64,0.0,3.0,87,0.00,,,0.00,,2013-04-18 02:22:00,
2013-04-17 20:32:00,11.0,8.0,30.07,ENE,59,6.0,10.0,87,0.00,,,0.00,,2013-04-18 02:32:00,
2013-04-17 20:42:00,11.0,8.0,30.07,ENE,59,6.0,10.0,87,0.00,,,0.00,,2013-04-18 02:42:00,
2013-04-17 20:52:00,11.0,8.0,30.07,ENE,59,6.0,10.0,87,0.00,,,0.00,,2013-04-18 02:52:00,
2013-04-17 21:02:00,10.0,7.0,30.07,NE,49,8.0,12.0,87,0.00,,,0.00,,2013-04-18 03:02:00,
2013-04-17 21:12:00,10.0,7.0,30.09,NE,48,9.0,13.0,87,0.00,,,0.00,,2013-04-18 03:12:00,
2013-04-17 21:22:00,10.0,7.0,30.09,NE,48,9.0,13.0,87,0.00,,,0.00,,2013-04-18 03:22:00,
2013-04-17 21:33:00,10.0,7.0,30.09,NE,49,3.0,10.0,87,0.00,,,0.00,,2013-04-18 03:33:00,
2013-04-17 21:43:00,10.0,7.0,30.09,NE,51,3.0,5.0,86,0.00,,,0.00,,2013-04-18 03:43:00,
2013-04-17 21:53:00,10.0,7.0,30.09,NE,51,3.0,5.0,86,0.00,,,0.00,,2013-04-18 03:53:00,
2013-04-17 22:03:00,10.0,7.0,30.09,NE,38,1.0,4.0,86,0.00,,,0.00,,2013-04-18 04:03:00,
2013-04-17 22:13:00,10.0,7.0,30.09,NE,38,1.0,4.0,86,0.00,,,0.00,,2013-04-18 04:13:00,
2013-04-17 22:23:00,9.0,6.0,30.09,NE,37,2.0,3.0,86,0.00,,,0.00,,2013-04-18 04:23:00,
2013-04-17 22:33:00,9.0,6.0,30.08,NE,38,3.0,5.0,86,0.00,,,0.00,,2013-04-18 04:33:00,
2013-04-17 22:43:00,8.0,4.0,30.09,NE,39,0.0,3.0,85,0.00,,,0.00,,2013-04-18 04:43:00,
2013-04-17 22:53:00,8.0,4.0,30.09,NE,39,0.0,3.0,85,0.00,,,0.00,,2013-04-18 04:53:00,
2013-04-17 23:02:00,8.0,5.0,30.08,ENE,75,3.0,8.0,86,0.00,,,0.00,,2013-04-18 05:02:00,
2013-04-17 23:12:00,8.0,4.0,30.08,SE,136,2.0,4.0,85,0.00,,,0.00,,2013-04-18 05:12:00,
2013-04-17 23:22:00,8.0,4.0,30.08,SE,136,2.0,4.0,85,0.00,,,0.00,,2013-04-18 05:22:00,
2013-04-17 23:32:00,6.0,2.0,30.08,SSW,209,4.0,6.0,85,0.00,,,0.00,,2013-04-18 05:32:00,
2013-04-17 23:42:00,6.0,2.0,30.08,SSW,209,4.0,6.0,85,0.00,,,0.00,,2013-04-18 05:42:00,
2013-04-17 23:52:00,6.0,2.0,30.08,SSW,209,4.0,6.0,85,0.00,,,0.00,,2013-04-18 05:52:00,